Regional Weather Roundup
Issued by NWS Tiyan, Guam

Home | Current Version | Previous Version | Text Only | Print | Product List | Glossary On
Versions: 1 2 3 4 5 6 7 8 9 10 11 12 13 14 15 16 17 18 19 20 21 22 23 24 25 26 27 28 29 30 31 32 33 34 35 36 37 38 39 40 41 42 43 44 45 46 47 48 49 50
000
ASGM40 PGUM 280712
RWRGUM
WEATHER ROUNDUP FOR THE MARIANAS
NATIONAL WEATHER SERVICE TIYAN GU
500 PM CHST THU AUG 28 2014

GUZ001>004-280800-
MARIANA ISLANDS-

CITY           SKY/WX    TMP DP  RH WIND       PRES   REMARKS
GUAM AIRPORT   MOSUNNY   84  77  79 VRB3      29.83S HX  94
ANDERSEN AFB   SUNNY     81  73  78 NE7       29.84R
ROTA AIRPORT   MOSUNNY   84  77  79 NE9       29.84S HX  94
TINIAN AP      MOSUNNY   86  77  74 NE8       29.82R HX  97
SAIPAN AP      SUNNY     88  75  66 NE10      29.84R HX  97

$$



USA.gov is the U.S. government's official web portal to all federal, state and local government web resources and services.